Regional Weather Roundup
Issued by NWS

Home | Current Version | Previous Version | Graphics & Text | Print | Product List | Glossary On
Versions: 1 2 3 4 5 6 7 8 9 10 11 12 13 14 15 16 17 18 19 20 21 22 23 24 25 26 27
000
ASUS45 KPSR 041310
RWRAZ

ARIZONA HOURLY REGIONAL WEATHER ROUNDUP
NATIONAL WEATHER SERVICE PHOENIX AZ
600 AM MST SUN DEC 04 2016

NOTE: FAIR INDICATES FEW OR NO CLOUDS BELOW 12,000 FEET WITH NO
SIGNIFICANT WEATHER AND/OR OBSTRUCTIONS TO VISIBILITY.

AZZ001>003-036-041400-
NORTHWEST ARIZONA

CITY           SKY/WX    TMP DP  RH WIND       PRES   REMARKS
BULLHEAD CITY  CLEAR     54  19  26 N22       30.13S
KINGMAN        PTCLDY    29  11  47 SE3       30.16R
$$

AZZ004>008-015-016-018-041400-
NORTH CENTRAL ARIZONA

CITY           SKY/WX    TMP DP  RH WIND       PRES   REMARKS
GRAND CANYON   PTCLDY     9   5  84 CALM      30.18R
PRESCOTT       CLEAR     25  14  63 S8        30.14R WCI  16
FLAGSTAFF      CLEAR     26   6  42 NE7       30.16R WCI  18
PAYSON         CLEAR     39   3  22 CALM      30.11F
PAGE           PTCLDY    28  12  51 CALM      30.20R
$$

AZZ009>014-017-041400-
NORTHEAST ARIZONA

CITY           SKY/WX    TMP DP  RH WIND       PRES   REMARKS
WINSLOW        MOCLDY    16  10  77 CALM      30.21S
SAINT JOHNS    PTCLDY    19  14  81 SW5       30.16S WCI  12
WINDOW ROCK    CLEAR     13   7  77 CALM      30.16R
SHOW LOW       PTCLDY    18   9  68 NE3       30.16S
$$

AZZ023-041400-
GREATER PHOENIX AREA

CITY           SKY/WX    TMP DP  RH WIND       PRES   REMARKS
PHOENIX        CLEAR     43  30  60 CALM      30.03S
BUCKEYE        CLEAR     41  19  42 N8        30.06S
LUKE AFB       CLEAR     42  25  50 NW7       30.04S
DEER VALLEY    CLEAR     45  15  30 N5        30.04S
SCOTTSDALE     CLEAR     43  23  45 CALM      30.05S
MESA-GATEWAY   CLEAR     48  16  27 N12       30.04S
CHANDLER       CLEAR     48  21  34 NW12      30.04
$$

AZZ027-028-041400-
SOUTHWEST MARICOPA COUNTY AND PINAL COUNTY

CITY           SKY/WX    TMP DP  RH WIND       PRES   REMARKS
CASA GRANDE    NOT AVBL
$$

AZZ503-504-507>509-041400-
SOUTHEAST ARIZONA

CITY           SKY/WX    TMP DP  RH WIND       PRES   REMARKS
TUCSON         CLEAR     34  23  64 S5        30.05R WCI  30
DAVIS-MONTHAN  CLEAR     34  25  70 CALM      30.03S
RYAN FIELD     CLEAR     34  23  64 CALM      30.05
NOGALES        CLEAR     32  27  81 E5        30.02R WCI  27
SIERRA VISTA   CLEAR     36  29  77 CALM      30.05R
DOUGLAS        CLEAR     29  28  96 NE7       30.05R WCI  22
SAFFORD        CLEAR     31  29  92 CALM      30.06R
$$

AZZ020-021-025-026-031-041400-
SOUTHWEST ARIZONA

CITY           SKY/WX    TMP DP  RH WIND       PRES   REMARKS
YUMA           CLEAR     55  11  17 N7        30.05R
$$

CAZ031-033-041-043-047-048-061-041400-
SOUTHERN CALIFORNIA

CITY           SKY/WX    TMP DP  RH WIND       PRES   REMARKS
DOWNTOWN L.A.  CLEAR     45  32  60 CALM      30.05S
L.A. AIRPORT   CLEAR     47  31  53 SE5       30.06R
SAN DIEGO      CLEAR     48  31  51 CALM      30.07F
BURBANK        CLEAR     44  25  47 N6        30.05R
ONTARIO        PTCLDY    50  22  33 NE5       30.06S
RIVERSIDE      CLEAR     48  26  42 NE5       30.06S
PALM SPRINGS   CLEAR     53  19  26 NW6       30.08R
EL CENTRO NAS  CLEAR     44  12  27 W10       30.08R
IMPERIAL       CLEAR     45  19  35 SW7       30.06R
BLYTHE         CLEAR     49  11  21 N10       30.08F
NEEDLES        CLEAR     53  14  21 N9        30.11S
$$

NVZ020-UTZ003-041400-
SOUTHERN NEVADA-UTAH

CITY           SKY/WX    TMP DP  RH WIND       PRES   REMARKS
LAS VEGAS      CLEAR     41  14  33 W5        30.16F
SALT LAKE CITY PTCLDY    28  19  69 SE9       30.18F WCI  19
$$

NMZ009-TXZ055-041400-
NEW MEXICO-WEST TEXAS

CITY           SKY/WX    TMP DP  RH WIND       PRES   REMARKS
ALBUQUERQUE    CLOUDY    29  13  51 N10       30.14R WCI  20
EL PASO        CLEAR     39  33  79 N7        30.03R WCI  34
$$


........................KEY........................
SKY/WX - SKY CONDITION/WEATHER
TMP    - TEMPERATURE IN FAHRENHEIT
DP     - DEW POINT IN FAHRENHEIT
RH     - RELATIVE HUMIDITY IN PERCENT
WIND   - DIRECTION AND SPEED IN MILES PER HOUR (MPH)
VRB    - VARIABLE WIND DIRECTION
PRES   - MEAN SEA LEVEL PRESSURE IN INCHES OF MERCURY
         F - FALLING PRESSURE   R - RISING PRESSURE
         S - STEADY PRESSURE
VSB    - VISIBILITY IN MILES
HX     - HEAT INDEX IN FAHRENHEIT
WCI    - WIND CHILL INDEX IN FAHRENHEIT
TC     - TEMPERATURE IN CELSIUS WHICH IS ALSO KNOWN AS
         TEMPERATURE IN CENTIGRADE
AFB    - AIR FORCE BASE
         LUKE AFB IS LUKE AIR FORCE BASE
         DAVIS-MONTHAN IS DAVIS-MONTHAN AIR FORCE BASE
NAS    - NAVAL AIR STATION
         EL CENTRO NAS IS EL CENTRO NAVAL AIR STATION
N/A    - NOT AVAILABLE





USA.gov is the U.S. government's official web portal to all federal, state and local government web resources and services.